Flag for Austria Past Weather in St. Veit an der Glan, Carinthia, Austria — Yesterday and Last 2 Weeks

Now
75 °F

Passing clouds.


Feels Like: 78 °F
Forecast: 59 / 84 °F
Wind: N/A

Location: Klagenfurt-Flughafen

Current Time: Jun 29, 2016 at 1:08:43 PM

Latest Report: Jun 29, 2016 at 12:00 PM


Visibility: 10 mi

Pressure: 29.97 "Hg

Humidity: 50%

Dew Point: 55 °F

Location of St. Veit an der GlanLocation

Past Weather in St. Veit an der Glan — Graph

°F

St. Veit an der Glan Temperature Yesterday

Maximum temperature yesterday: 78 °F (at 5:00 PM)
Minimum temperature yesterday: 52 °F (at 6:00 AM)
Average temperature yesterday: 66 °F

High & Low Weather Summary for the Past Weeks

 TemperatureHumidityPressure
High88 °F (Jun 24, 4:00 PM)97% (Jun 21, 4:00 AM)30.28 "Hg (Jun 21, 4:00 AM)
Low52 °F (Jun 18, 6:00 AM)32% (Jun 17, 2:00 PM)29.50 "Hg (Jun 14, 3:00 PM)
Average67 °F71%29.97 "Hg
* Reported Jun 14 12:00 PM — Jun 29 12:00 PM, St. Veit an der Glan, Weather by CustomWeather, © 2016

Note: Actual official high and low records may vary slightly from our data, if they occured in-between our weather recording intervals... More about our weather records

Advertising

St. Veit an der Glan Weather History for the Previous 24 Hours

Scroll right to see more
 ConditionsComfort  
Time TempWeatherWind HumidityBarometerVisibility
12:00 PM
Wed, Jun 29
75 °FPassing clouds.N/A50%29.97 "Hg10 mi
11:00 AM72 °FPassing clouds.N/A55%29.99 "Hg22 mi
10:00 AM69 °FPassing clouds.N/A57%30.02 "Hg22 mi
9:00 AM67 °FSunny.N/A66%30.03 "Hg28 mi
8:00 AM62 °FSunny.N/A74%30.06 "Hg22 mi
7:00 AM59 °FSunny.N/A79%30.07 "Hg22 mi
6:00 AM55 °FSunny.N/A87%30.08 "Hg22 mi
5:00 AM55 °FCool.N/A87%30.06 "Hg25 mi
3:00 AM58 °FCool.N/A84%30.06 "Hg31 mi
2:00 AM59 °FCool.N/A81%30.05 "Hg25 mi
1:00 AM61 °FCool.N/A78%30.05 "Hg28 mi
12:00 AM63 °FMild.N/A74%30.03 "Hg31 mi
11:00 PM
Tue, Jun 28
66 °FClear.N/A65%30.01 "Hg31 mi
10:00 PM72 °FClear.N/A49%29.98 "Hg22 mi
9:00 PM71 °FPassing clouds.N/A53%29.96 "Hg22 mi
8:00 PM76 °FPassing clouds.N/A39%29.94 "Hg22 mi
7:00 PM78 °FPassing clouds.N/A36%29.94 "Hg22 mi
6:00 PM78 °FPassing clouds.N/A35%29.94 "Hg22 mi
5:00 PM78 °FPassing clouds.N/A35%29.95 "Hg22 mi
4:00 PM78 °FPassing clouds.N/A37%29.96 "Hg28 mi
3:00 PM77 °FPassing clouds.N/A33%29.98 "Hg22 mi
2:00 PM76 °FPassing clouds.3 mph40%30.00 "Hg19 mi
1:00 PM74 °FPassing clouds.N/A38%30.03 "Hg17 mi
Weather by CustomWeather, © 2016

See weather overviewHow to use our weather pages